Wind_Speed
24 23 22 21 20 18 17 17 17 17 15 14 13 13 13 13 14 15 15 16 17 17 18 18 19 20 20 21 22 23 23 22 22 22 24 23 24 23 24 24 25 23 24 24 24
28 26 25 23 21 20 18 17 16 17 19 19 19 19 19 19 20 21 22 23 23 23 23 24 24 24 23 24 23 25 22 23 23 25 24 25 24 26 24 23 24 25 26 24 23
31 29 28 26 24 22 22 22 21 22 22 23 23 23 24 24 25 26 27 28 28 28 30 30 29 29 27 26 26 22 22 24 23 26 27 25 26 25 27 25 26 28 26 25 22
34 33 31 30 29 28 28 27 28 28 29 29 28 28 28 28 31 31 32 34 33 32 32 31 31 30 28 27 28 25 24 26 27 27 28 29 30 28 31 26 32 31 29 27 27
36 36 36 35 35 34 34 34 35 36 36 35 34 33 33 33 34 38 36 35 33 31 31 31 31 32 30 29 30 29 26 29 29 30 30 32 31 38 25 31 31 31 29 29 28
41 41 40 40 40 40 39 39 39 38 38 39 38 37 35 31 33 36 34 33 32 33 34 35 35 36 34 32 34 33 32 32 30 33 36 39 36 39 26 35 33 33 32 30 29
40 40 40 39 38 38 37 37 37 36 36 36 34 34 31 27 32 35 37 38 37 37 36 36 36 37 34 33 35 38 41 37 31 38 43 44 36 35 35 37 34 33 31 29 29
44 44 43 43 42 42 41 40 40 39 39 39 38 38 36 35 38 39 40 40 40 38 37 37 40 41 37 38 41 42 45 44 37 38 41 46 41 37 37 38 35 31 30 33 34
43 43 43 43 45 46 46 45 45 45 45 44 44 44 42 39 38 39 40 40 40 40 41 41 44 45 40 41 45 44 50 49 48 38 39 47 50 40 37 38 39 34 34 34 37
47 46 46 44 45 46 45 46 45 46 46 45 45 45 45 42 42 41 41 42 44 45 45 45 47 48 43 45 50 50 52 52 52 43 41 50 50 48 40 36 39 37 35 38 37
49 48 47 48 49 48 48 48 49 50 48 48 50 49 51 49 47 44 43 44 45 45 47 46 48 50 47 49 50 51 53 53 52 50 55 53 49 51 53 46 37 40 39 40 41
53 52 53 50 49 49 50 51 51 52 51 49 50 52 51 49 49 44 42 45 45 46 48 49 52 52 52 50 53 53 54 56 55 54 57 55 58 54 52 53 49 42 40 41 42
57 56 56 54 53 54 54 54 54 55 55 52 51 53 55 53 52 52 52 53 53 53 54 54 56 58 56 56 55 54 58 59 60 59 59 62 60 59 58 50 51 43 42 42 41
57 56 55 55 57 58 58 58 58 59 59 61 58 58 57 57 56 51 48 48 46 46 47 51 51 53 58 56 56 58 53 56 60 60 62 65 68 62 63 60 62 58 52 50 46
55 54 58 58 58 59 60 58 56 58 54 58 60 55 51 51 49 45 42 43 44 44 45 47 48 48 49 51 50 52 54 57 60 65 66 65 67 67 60 63 63 60 56 39 21
53 50 47 47 50 52 53 52 51 52 57 53 53 46 47 48 48 49 47 44 43 43 46 46 48 47 47 48 50 54 55 55 56 57 59 59 60 64 59 61 61 58 43 28 28
51 51 47 48 48 50 50 50 50 54 57 51 50 50 50 52 52 49 48 46 46 49 48 50 49 50 49 47 48 52 54 57 58 59 57 58 59 59 56 58 56 54 51 53 50
56 56 52 51 52 52 51 50 54 56 52 51 51 53 54 52 50 48 46 44 46 47 49 50 48 46 47 47 50 53 50 54 58 58 58 58 60 64 64 61 60 60 60 56 51
45 48 47 48 47 50 51 53 54 53 52 54 58 59 59 56 53 52 50 48 49 49 51 55 57 59 59 57 59 57 56 58 59 58 60 60 62 62 65 65 67 67 70 68 66
50 49 49 49 53 56 56 55 55 53 55 56 58 58 55 53 56 53 52 57 54 52 54 55 55 54 55 60 59 52 51 55 60 64 67 66 63 61 63 65 71 72 67 63 64
52 55 53 54 58 58 59 59 58 55 55 56 55 57 54 53 54 55 55 54 53 53 53 52 53 53 54 52 48 53 55 57 58 61 65 66 66 59 61 65 66 68 72 72 75
54 56 58 59 58 57 59 59 59 58 59 56 55 54 51 48 51 51 52 52 56 56 56 57 57 56 54 50 52 55 57 57 61 62 62 64 64 49 58 64 67 72 75 78 81
60 56 62 64 67 67 65 61 58 60 56 57 53 51 50 52 56 54 54 55 55 55 57 57 59 60 60 56 56 55 55 57 59 57 56 55 55 56 62 65 70 76 74 72 75
71 74 72 71 67 67 67 67 66 64 61 56 54 53 53 52 54 55 55 57 57 57 56 58 59 59 60 61 60 59 55 55 57 62 59 57 58 53 49 53 57 62 71 68 73
71 72 68 67 64 62 64 66 66 63 58 56 55 55 56 56 56 56 57 59 59 58 60 60 62 62 64 63 62 62 62 60 62 63 68 68 70 67 70 74 72 64 65 76 83
72 71 66 64 63 62 62 64 60 57 56 55 56 57 57 56 56 57 57 58 58 59 60 61 63 64 65 62 65 69 66 66 68 69 74 77 81 76 80 81 85 93 99 103 102
67 65 63 65 63 59 58 54 56 56 58 56 57 57 57 59 59 59 58 59 58 59 61 62 63 66 71 67 71 77 71 74 77 76 77 81 81 82 85 86 87 90 92 92 92
Wind_Direction
258 263 266 270 272 271 269 266 260 252 247 246 252 261 268 273 278 280 282 281 282 285 287 285 283 285 287 288 289 289 292 294 292 291 293 294 294 292 289 289 288 285 284 287 284
258 261 264 265 263 263 262 261 261 258 256 256 258 266 272 276 280 284 286 287 288 288 287 286 285 284 284 283 285 287 293 292 293 294 294 296 294 292 293 286 285 284 285 286 287
258 260 261 259 258 258 259 260 260 261 261 262 264 267 272 277 281 284 283 284 287 288 288 286 284 281 278 278 280 282 289 287 289 290 294 294 290 289 289 294 284 283 282 285 285
256 257 258 260 261 261 263 264 264 265 264 264 264 265 268 272 276 275 278 282 282 282 282 282 281 279 278 279 279 279 282 285 290 290 292 291 291 285 288 299 287 288 290 287 284
254 256 258 260 263 265 267 269 270 270 270 270 269 269 270 272 274 276 278 279 279 280 280 281 282 282 280 281 275 275 280 286 287 289 288 286 287 284 301 289 284 290 291 288 285
259 260 262 264 266 267 268 269 269 270 270 271 272 272 272 274 273 278 281 280 280 282 284 284 284 284 284 282 277 278 279 284 287 287 285 285 289 292 290 282 287 286 289 292 291
261 262 262 263 265 267 268 267 268 269 270 271 272 272 272 272 273 275 278 280 281 282 282 283 282 281 283 281 280 281 284 285 288 287 289 289 289 286 283 282 284 286 289 289 286
260 261 262 264 264 265 266 266 267 268 268 269 270 270 270 270 272 272 275 277 279 279 279 281 282 282 284 283 284 283 285 287 285 285 289 291 289 284 283 283 284 285 283 282 280
260 262 263 265 267 267 266 268 268 268 269 270 271 271 270 268 269 270 272 274 277 278 280 281 282 281 282 285 283 287 285 286 288 288 283 284 286 290 285 287 282 279 278 274 274
263 263 265 264 265 266 268 270 270 270 271 272 271 272 271 272 270 269 271 274 276 277 277 277 278 279 281 281 280 282 284 287 288 288 277 277 284 288 289 281 283 282 280 273 267
264 264 264 265 266 268 269 270 271 271 271 272 273 272 274 275 274 274 275 274 274 275 276 276 279 280 278 275 277 279 280 283 283 284 284 282 283 286 293 287 281 281 280 276 269
264 265 263 264 266 268 270 270 271 273 273 273 273 274 273 274 276 278 277 277 276 276 276 278 278 279 279 278 276 277 279 278 280 281 281 284 285 290 286 292 293 283 280 278 270
263 264 262 264 266 268 270 271 271 273 273 271 271 274 276 279 280 281 280 278 277 275 274 273 274 276 275 274 273 274 276 279 281 281 280 283 286 286 290 292 288 286 278 274 275
263 262 263 266 268 268 270 273 273 273 274 274 272 273 275 276 279 281 280 279 277 276 274 273 272 271 273 274 274 274 273 274 276 278 281 284 285 286 289 290 285 284 289 290 282
261 262 263 265 267 267 270 272 272 274 276 275 276 279 278 279 280 278 278 277 277 277 277 276 274 271 271 272 272 272 272 272 275 277 280 282 286 287 289 286 287 289 293 290 265
260 260 257 258 261 264 266 267 270 273 272 273 276 281 281 278 273 272 277 276 278 280 280 278 277 274 273 272 273 274 275 277 279 278 278 282 283 284 287 286 288 292 287 260 255
255 255 259 260 262 266 266 267 271 269 272 275 280 278 277 276 275 275 276 279 282 282 283 286 281 278 275 274 276 278 280 279 277 279 283 280 279 281 281 285 288 287 284 280 283
257 261 264 264 266 265 266 268 268 272 278 275 278 277 276 276 279 282 284 286 284 284 285 285 278 274 277 276 281 281 275 275 277 275 271 272 277 283 283 283 282 280 279 281 278
259 260 261 263 267 270 271 272 272 276 278 276 275 277 277 278 281 284 285 283 282 283 283 282 282 284 286 283 287 289 284 280 282 281 283 276 276 278 277 276 279 287 287 284 281
259 258 261 267 269 270 272 276 278 276 275 275 276 278 278 281 280 281 282 285 287 287 285 284 284 285 286 291 293 293 285 286 287 285 284 278 277 280 283 282 287 288 288 283 286
264 267 264 266 267 268 272 273 273 276 275 275 280 283 286 287 288 290 291 290 291 290 288 287 285 288 288 292 285 279 278 279 278 276 279 282 287 290 287 283 285 281 279 280 281
264 264 261 263 267 268 270 272 274 275 277 280 282 284 285 283 281 283 285 284 287 289 287 286 284 283 285 285 282 280 281 280 280 282 280 279 278 278 274 275 271 268 268 271 274
256 255 260 265 267 270 272 275 277 278 279 281 280 279 279 279 280 282 282 281 283 283 283 283 281 285 289 288 284 278 277 277 278 277 280 279 275 274 278 275 271 269 269 268 267
258 262 265 268 269 272 275 278 282 282 280 278 279 278 278 276 278 281 282 282 282 282 281 281 282 286 285 288 285 281 280 281 280 275 273 264 271 276 279 266 261 261 261 261 263
257 262 266 267 272 277 277 277 279 281 279 276 275 275 276 276 276 278 277 278 281 280 280 280 281 280 280 281 279 277 277 278 276 279 276 282 277 278 273 261 267 264 261 266 266
260 262 268 273 273 274 274 277 275 274 273 272 272 274 274 274 273 275 274 274 276 277 277 278 280 278 279 279 279 278 280 282 280 281 280 279 278 277 270 268 265 265 264 268 273
264 269 272 274 274 272 272 270 269 270 271 272 273 272 271 271 273 273 272 273 275 277 278 280 280 281 281 283 281 279 288 284 283 283 282 279 278 276 273 272 271 270 270 271 271
Height
5864 5865 5866 5866 5866 5866 5866 5867 5867 5867 5868 5868 5868 5869 5869 5868 5868 5867 5867 5866 5866 5865 5864 5863 5862 5862 5861 5860 5859 5857 5857 5856 5854 5852 5851 5850 5848 5847 5845 5843 5842 5842 5841 5839 5838
5860 5861 5862 5862 5862 5863 5863 5863 5863 5864 5865 5865 5865 5865 5865 5865 5864 5864 5863 5862 5861 5861 5860 5859 5858 5858 5857 5856 5855 5853 5853 5851 5850 5848 5847 5845 5844 5842 5841 5840 5838 5837 5836 5834 5833
5855 5856 5857 5857 5858 5859 5860 5860 5860 5860 5860 5860 5861 5861 5861 5860 5860 5859 5858 5857 5856 5856 5854 5854 5853 5852 5852 5851 5849 5850 5848 5845 5846 5843 5841 5841 5839 5839 5836 5837 5833 5832 5830 5829 5829
5849 5850 5851 5852 5853 5854 5855 5855 5855 5855 5855 5855 5855 5856 5856 5855 5854 5852 5852 5851 5850 5849 5848 5847 5846 5845 5846 5846 5844 5844 5843 5841 5840 5837 5836 5834 5834 5833 5831 5834 5827 5827 5826 5825 5823
5842 5843 5844 5845 5847 5847 5848 5848 5848 5848 5848 5848 5849 5849 5850 5850 5847 5843 5845 5844 5842 5842 5841 5840 5839 5838 5840 5839 5837 5837 5838 5836 5834 5831 5829 5827 5827 5821 5830 5823 5822 5821 5821 5820 5819
5835 5836 5837 5838 5839 5839 5840 5841 5840 5840 5840 5840 5840 5841 5842 5845 5841 5837 5837 5836 5836 5835 5835 5833 5832 5830 5832 5833 5830 5831 5831 5830 5829 5825 5821 5818 5821 5816 5824 5815 5816 5815 5815 5815 5814
5827 5828 5829 5829 5830 5831 5832 5832 5832 5832 5832 5832 5832 5832 5835 5837 5834 5832 5830 5830 5829 5828 5827 5826 5824 5823 5824 5825 5824 5822 5820 5822 5825 5818 5811 5808 5815 5813 5810 5807 5809 5809 5809 5808 5806
5818 5819 5820 5821 5822 5822 5823 5823 5824 5824 5823 5823 5824 5824 5826 5828 5826 5825 5823 5822 5821 5821 5820 5818 5816 5815 5817 5817 5814 5813 5810 5811 5817 5814 5807 5799 5802 5804 5803 5801 5802 5804 5802 5798 5797
5808 5810 5811 5813 5814 5814 5815 5815 5816 5815 5815 5815 5815 5814 5817 5818 5818 5816 5816 5815 5813 5812 5811 5811 5808 5807 5810 5808 5804 5805 5799 5799 5799 5806 5801 5792 5785 5795 5797 5796 5793 5796 5794 5792 5788
5799 5801 5802 5802 5803 5803 5805 5806 5806 5807 5807 5806 5805 5807 5806 5808 5808 5809 5808 5807 5806 5804 5803 5802 5799 5797 5803 5800 5793 5793 5789 5788 5786 5792 5792 5783 5779 5779 5786 5787 5785 5785 5785 5782 5779
5789 5791 5792 5792 5793 5794 5795 5795 5797 5796 5797 5798 5796 5796 5793 5796 5796 5800 5800 5799 5797 5796 5795 5794 5791 5788 5791 5787 5786 5784 5780 5778 5779 5779 5773 5773 5775 5772 5770 5772 5776 5773 5773 5772 5771
5780 5781 5781 5782 5783 5783 5784 5783 5783 5783 5786 5787 5787 5785 5784 5784 5785 5789 5791 5790 5790 5787 5785 5784 5781 5779 5778 5779 5775 5774 5771 5767 5767 5765 5762 5763 5759 5764 5764 5763 5761 5763 5761 5761 5759
5768 5769 5769 5771 5772 5773 5773 5774 5773 5773 5771 5776 5776 5775 5774 5776 5775 5776 5778 5777 5776 5776 5773 5773 5771 5767 5768 5765 5766 5766 5761 5760 5757 5755 5753 5748 5749 5748 5750 5751 5749 5751 5751 5749 5750
5756 5757 5758 5760 5762 5760 5761 5762 5763 5762 5762 5760 5763 5765 5765 5765 5765 5763 5762 5763 5762 5761 5760 5760 5759 5758 5754 5754 5754 5753 5753 5749 5746 5744 5742 5739 5736 5741 5738 5738 5732 5735 5735 5735 5741
5744 5746 5748 5749 5750 5751 5752 5751 5750 5751 5751 5748 5746 5749 5752 5753 5752 5752 5751 5751 5750 5750 5749 5747 5747 5747 5747 5744 5742 5742 5739 5738 5738 5734 5730 5729 5726 5723 5726 5721 5721 5721 5722 5724 5724
5732 5735 5735 5736 5739 5739 5740 5740 5741 5743 5736 5739 5738 5739 5740 5741 5741 5740 5740 5740 5739 5738 5738 5737 5735 5735 5736 5734 5732 5730 5727 5725 5722 5721 5720 5720 5717 5715 5711 5709 5710 5711 5712 5713 5712
5722 5724 5725 5726 5727 5729 5730 5731 5732 5728 5728 5730 5731 5730 5727 5726 5726 5727 5730 5731 5728 5725 5724 5724 5726 5725 5724 5722 5721 5720 5718 5713 5712 5709 5711 5707 5707 5706 5702 5703 5702 5702 5700 5700 5700
5709 5711 5712 5715 5716 5718 5719 5720 5717 5715 5720 5722 5719 5718 5715 5713 5713 5714 5716 5718 5714 5714 5712 5711 5715 5713 5713 5713 5710 5706 5708 5704 5698 5699 5699 5699 5697 5695 5693 5694 5692 5690 5689 5687 5688
5697 5698 5700 5701 5703 5706 5706 5705 5706 5706 5708 5707 5704 5705 5704 5701 5703 5700 5703 5705 5701 5703 5701 5699 5700 5698 5700 5701 5697 5695 5694 5691 5685 5684 5678 5686 5690 5686 5682 5683 5679 5675 5673 5673 5673
5685 5686 5688 5688 5691 5691 5692 5693 5693 5696 5692 5692 5691 5694 5693 5688 5687 5686 5689 5689 5689 5689 5685 5684 5684 5688 5685 5685 5683 5678 5676 5675 5671 5665 5662 5672 5676 5675 5673 5671 5663 5660 5658 5655 5654
5671 5673 5677 5675 5675 5678 5679 5680 5680 5680 5678 5678 5679 5679 5678 5676 5674 5674 5675 5673 5674 5670 5670 5668 5665 5674 5670 5675 5670 5662 5661 5660 5657 5653 5645 5647 5653 5664 5658 5647 5648 5645 5639 5638 5635
5655 5658 5662 5660 5661 5662 5666 5667 5666 5665 5665 5665 5665 5664 5663 5663 5661 5663 5664 5659 5659 5659 5655 5651 5646 5648 5658 5662 5652 5647 5646 5644 5636 5636 5630 5628 5630 5652 5636 5631 5629 5623 5622 5621 5617
5640 5643 5645 5643 5647 5650 5650 5651 5650 5651 5651 5650 5651 5651 5650 5650 5645 5649 5649 5648 5647 5646 5640 5638 5632 5629 5634 5643 5635 5631 5632 5630 5626 5622 5617 5614 5614 5619 5621 5616 5607 5602 5602 5599 5594
5625 5625 5630 5631 5634 5634 5634 5636 5635 5636 5635 5636 5637 5636 5634 5636 5633 5634 5635 5631 5633 5631 5627 5622 5621 5619 5613 5616 5616 5610 5612 5614 5610 5601 5599 5599 5598 5604 5605 5593 5581 5582 5579 5575 5572
5609 5611 5614 5614 5619 5618 5616 5621 5619 5618 5622 5620 5622 5620 5619 5618 5620 5620 5618 5615 5618 5614 5610 5606 5604 5604 5600 5598 5595 5594 5593 5601 5593 5588 5578 5581 5580 5586 5585 5575 5569 5562 5559 5556 5553
5594 5596 5597 5600 5600 5602 5602 5608 5606 5603 5606 5606 5607 5604 5605 5604 5603 5603 5602 5601 5601 5598 5593 5591 5587 5585 5582 5584 5576 5569 5579 5579 5574 5572 5563 5557 5551 5561 5551 5551 5549 5543 5541 5536 5532
5576 5577 5577 5583 5584 5585 5589 5593 5591 5589 5589 5591 5590 5588 5588 5587 5586 5586 5587 5585 5583 5581 5577 5574 5571 5566 5558 5563 5556 5548 5566 5553 5549 5551 5544 5530 5530 5528 5524 5521 5522 5517 5513 5510 5506